DW2770 Weather Reports


Display with metric or nautical units.
time (UTC)temp
F
wind
direction
speed
MPH
gust
MPH
rain 1hr
in
rain 24hr
in
rain mn
in
humidity
%
barometer
mb
20260508193016 66 227 4.0 7.0 0.00 0.00 0.00 71 1014.4
20260508184519 66 246 3.0 7.0 0.00 0.00 0.00 73 1013.6
20260508183024 66 208 4.0 8.0 0.00 0.00 0.00 73 1013.6
20260508181519 66 221 3.0 7.0 0.00 0.00 0.00 73 1013.4
20260508180026 66 258 2.0 9.0 0.00 0.00 0.00 74 1013.2
20260508174522 66 266 1.0 7.0 0.00 0.00 0.00 74 1013.2
20260508173012 67 271 2.0 5.0 0.00 0.00 0.00 73 1013.2
20260508171516 67 242 5.0 10.0 0.00 0.00 0.00 72 1013.0
20260508170016 66 319 2.0 8.0 0.00 0.00 0.00 75 1013.0
20260508164524 66 257 3.0 10.0 0.00 0.00 0.00 75 1013.0
20260508163031 66 276 2.0 8.0 0.00 0.00 0.00 75 1012.8
20260508161513 67 246 1.0 9.0 0.00 0.00 0.00 72 1012.8
20260508160021 68 263 3.0 10.0 0.00 0.00 0.00 69 1012.7
20260508154506 69 321 3.0 8.0 0.00 0.00 0.00 69 1012.7
20260508153008 68 342 3.0 8.0 0.00 0.00 0.00 74 1012.7
20260508151512 68 298 3.0 7.0 0.00 0.00 0.00 75 1012.7
20260508150035 69 307 4.0 9.0 0.00 0.00 0.00 75 1012.5
20260508144505 69 306 3.0 8.0 0.00 0.00 0.00 74 1012.3
20260508143010 69 327 3.0 9.0 0.00 0.00 0.00 71 1012.2
20260508140022 70 325 3.0 9.0 0.00 0.00 0.00 62 1012.2
20260508134517 70 205 2.0 8.0 0.00 0.00 0.00 64 1012.2
20260508133003 71 290 4.0 8.0 0.00 0.00 0.00 61 1012.1
20260508131508 71 220 3.0 8.0 0.00 0.00 0.00 63 1012.1
20260508130012 71 294 3.0 10.0 0.00 0.00 0.00 63 1012.0
20260508124505 71 242 4.0 8.0 0.00 0.00 0.00 60 1011.9
20260508123004 71 315 4.0 8.0 0.00 0.00 0.00 60 1011.9
20260508121503 70 352 3.0 7.0 0.00 0.00 0.00 62 1011.8
20260508120000 71 334 3.0 8.0 0.00 0.00 0.00 61 1012.0
20260508114503 71 296 3.0 7.0 0.00 0.00 0.00 57 1011.9
20260508113005 71 313 4.0 8.0 0.00 0.00 0.00 55 1011.9
20260508111504 71 298 3.0 7.0 0.00 0.00 0.00 55 1011.9
20260508110007 70 247 2.0 7.0 0.00 0.00 0.00 60 1011.9
20260508104504 70 55 3.0 7.0 0.00 0.00 0.00 62 1011.9
20260508103002 70 51 4.0 7.0 0.00 0.00 0.00 67 1012.0
20260508101504 70 297 3.0 6.0 0.00 0.00 0.00 68 1012.0
20260508100012 71 201 2.0 6.0 0.00 0.00 0.00 65 1012.0
20260508094509 70 84 3.0 8.0 0.00 0.00 0.00 65 1011.7
20260508093003 71 71 4.0 8.0 0.00 0.00 0.00 66 1011.6
20260508091505 71 106 3.0 7.0 0.00 0.00 0.00 68 1011.4
20260508090005 70 18 2.0 7.0 0.00 0.00 0.00 67 1011.4
20260508084507 70 350 0.0 7.0 0.00 0.00 0.00 69 1011.4
20260508083013 71 5 2.0 7.0 0.00 0.00 0.00 69 1011.3
20260508081504 70 90 2.0 7.0 0.00 0.00 0.00 70 1011.1
20260508080013 69 22 1.0 7.0 0.00 0.00 0.00 72 1011.0
20260508074506 69 86 2.0 7.0 0.00 0.00 0.00 72 1010.8
20260508073010 68 55 3.0 6.0 0.00 0.00 0.00 73 1010.6
20260508071515 69 63 1.0 6.0 0.00 0.00 0.00 73 1010.7
20260508070016 69 88 2.0 5.0 0.00 0.00 0.00 70 1010.6
20260508064522 69 71 0.0 3.0 0.00 0.00 0.00 70 1010.6
20260508063007 68 102 2.0 5.0 0.00 0.00 0.00 72 1010.4
20260508061518 68 74 2.0 4.0 0.00 0.00 0.00 72 1010.2
20260508060019 67 94 2.0 7.0 0.00 0.00 0.00 74 1010.1
20260508054506 68 117 2.0 4.0 0.00 0.00 0.00 74 1009.9
20260508053010 67 69 0.0 2.0 0.00 0.00 0.00 76 1009.7
20260508051513 66 86 0.0 0.0 0.00 0.00 0.00 77 1009.7
20260508050008 65 86 0.0 2.0 0.00 0.00 0.00 78 1009.6
20260508044506 65 96 1.0 3.0 0.00 0.00 0.00 75 1009.5
20260508043006 65 190 0.0 1.0 0.00 0.00 0.00 75 1009.4
20260508041508 65 111 0.0 2.0 0.00 0.00 0.00 76 1009.3
20260508040034 65 61 0.0 2.0 0.00 0.00 0.00 77 1009.2
20260508034504 65 49 0.0 0.0 0.00 0.00 0.00 78 1009.0
20260508033007 65 91 0.0 2.0 0.00 0.00 0.00 79 1008.9
20260508031514 65 66 0.0 4.0 0.00 0.00 0.00 79 1008.5
20260508030012 65 92 1.0 8.0 0.00 0.00 0.00 77 1008.3
20260508024525 66 90 1.0 4.0 0.00 0.00 0.00 67 1008.5
20260508023009 67 170 0.0 3.0 0.00 0.00 0.00 65 1007.9
20260508021508 67 189 1.0 4.0 0.00 0.00 0.00 64 1007.9
20260508020010 67 203 2.0 3.0 0.00 0.00 0.00 65 1008.0
20260508014514 67 246 2.0 7.0 0.00 0.00 0.00 65 1008.0
20260508013019 67 278 2.0 7.0 0.00 0.00 0.00 66 1007.9
20260508011506 67 231 4.0 8.0 0.00 0.00 0.00 63 1007.7
20260508010014 67 97 0.0 2.0 0.00 0.00 0.00 63 1007.6
20260508004519 67 123 0.0 0.0 0.00 0.00 0.00 65 1007.6
20260508003016 67 142 0.0 1.0 0.00 0.00 0.00 65 1007.9
20260508001522 67 196 1.0 5.0 0.00 0.00 0.00 64 1008.2
20260508000009 68 92 1.0 7.0 0.00 0.00 0.00 63 1008.3
20260507234513 69 89 1.0 5.0 0.00 0.00 0.00 62 1008.6
20260507233019 70 123 0.0 10.0 0.00 0.00 0.00 58 1008.8
20260507231502 70 165 8.0 20.0 0.00 0.00 0.00 57 1008.9
20260507224507 69 240 8.0 15.0 0.00 0.00 0.00 61 1009.8
20260507223007 68 244 7.0 12.0 0.00 0.00 0.00 61 1009.9
20260507221504 68 248 3.0 7.0 0.00 0.00 0.00 60 1009.9
20260507220002 68 247 3.0 5.0 0.00 0.00 0.00 59 1009.2
20260507213009 68 196 1.0 4.0 0.00 0.00 0.00 61 1008.8
20260507211504 68 173 0.0 2.0 0.00 0.00 0.00 61 1008.7
20260507210005 68 175 0.0 4.0 0.00 0.00 0.00 60 1008.7
20260507204505 68 200 1.0 4.0 0.00 0.00 0.00 59 1008.9
20260507201507 68 196 2.0 6.0 0.00 0.00 0.00 59 1009.0
20260507200004 68 219 0.0 6.0 0.00 0.00 0.00 56 1008.6
20260507194520 68 193 1.0 4.0 0.00 0.00 0.00 59 1008.6